{"data":{"norad_id":56448,"epoch":"2026-05-25T04:36:45.864000Z","epoch_age_seconds":58584,"freshness":"FRESH","line1":"1 56448U 23064A   26145.19219750  .00002453  00000+0  21335-3 0  9994","line2":"2 56448  69.9987 311.6353 0003084 262.8546  97.2263 14.98318876166701","mean_motion":14.98318876,"eccentricity":0.0003084,"inclination_deg":69.9987,"raan_deg":311.6353,"arg_perigee_deg":262.8546,"mean_anomaly_deg":97.2263,"bstar":0.00021335,"rev_number":16670,"period_min":96.107712654886,"perigee_km":569.94684111302,"apogee_km":574.23374130623,"semimajor_km":6950.2272912096,"source":"CELESTRAK","updated_at":"2026-05-25T13:38:18.065653Z"}}